GFSNE_sfc_thetae_132.txt.gz
Theta_e
321 320 319 320 319 319 318 317 314 308 309 308 307 303 301 297 296 296 295 297 302 302 304 305 306 306 306 305 304 304 304 303 301 300 299 298 298 298
322 321 320 321 320 320 319 317 316 313 309 310 306 298 295 294 294 294 294 294 297 299 301 303 304 304 305 303 304 303 303 302 301 300 299 298 298 298
321 320 319 320 319 318 317 316 315 314 310 310 301 294 292 292 291 292 293 293 293 296 298 301 303 303 302 301 302 301 301 300 299 299 299 298 298 298
319 319 318 318 316 316 315 314 314 315 312 309 293 289 291 290 290 289 290 292 292 294 297 299 301 302 301 301 301 300 299 298 297 297 297 297 297 297
318 317 317 316 314 315 314 314 313 312 312 310 296 289 288 288 287 287 288 288 290 292 295 297 298 300 300 300 299 299 298 297 296 296 295 296 296 296
317 316 316 314 313 313 312 311 309 307 300 296 288 286 286 286 286 285 284 285 285 288 291 292 295 296 298 298 297 297 296 296 295 295 294 295 295 295
312 313 311 304 298 304 307 307 302 296 289 288 286 286 285 284 284 285 284 284 284 285 285 286 286 287 290 294 292 292 294 295 294 294 294 294 294 294
306 300 295 291 294 294 296 297 299 296 289 289 287 287 286 286 285 284 283 282 282 285 285 284 286 286 286 287 291 292 293 293 293 293 293 293 293 293
298 294 291 291 292 292 294 294 292 296 295 292 288 287 286 286 286 284 284 284 284 284 284 283 285 285 286 287 292 292 292 292 292 292 292 292 292 292
292 291 290 289 290 290 289 288 287 287 288 288 287 287 287 287 287 286 285 284 283 284 284 283 285 285 285 286 291 291 291 292 292 292 291 291 291 291
287 289 289 288 291 292 287 286 285 285 290 291 291 291 291 290 288 286 284 284 282 282 284 279 278 280 280 278 281 290 290 290 290 290 290 290 290 290
285 286 287 288 290 291 286 286 285 284 285 285 285 287 288 289 289 286 286 284 283 282 281 278 278 278 276 277 279 280 281 287 288 288 289 289 289 283
285 285 286 290 290 290 289 286 286 286 287 285 285 285 285 285 285 285 285 285 283 282 283 283 277 276 272 275 278 279 280 281 281 282 285 286 287 286
285 285 287 290 290 290 288 290 289 286 285 285 284 284 283 283 283 283 284 284 283 282 283 284 280 276 273 280 275 278 278 278 280 280 280 283 285 285
286 288 290 290 290 289 289 289 285 285 285 284 282 281 281 282 283 282 282 283 283 283 283 282 279 282 279 280 275 275 279 279 279 278 278 279 279 279
287 286 287 287 287 285 284 284 284 284 283 282 280 280 281 278 279 281 280 280 280 280 282 283 282 282 280 279 279 275 276 276 276 276 276 276 278 279
285 284 283 283 282 282 282 282 282 280 279 278 278 279 280 280 280 280 280 279 278 278 279 281 282 282 281 278 274 275 275 274 276 275 274 274 274 276
282 281 280 280 280 280 280 279 278 280 280 281 280 280 279 279 278 279 278 275 274 278 278 279 279 278 278 276 281 275 272 272 273 274 272 270 268 273
281 280 279 279 278 278 278 278 277 277 278 278 278 278 279 278 278 277 278 278 277 277 277 278 277 273 268 267 272 282 277 270 270 268 269 269 270 272
280 279 278 279 278 277 277 277 277 277 277 277 277 277 277 277 277 277 277 276 276 275 273 271 270 269 268 269 266 271 278 269 266 265 267 267 270 276
273 272 273 273 273 274 274 275 275 274 273 274 274 275 275 275 274 274 275 274 271 267 266 268 271 272 270 266 263 262 267 276 273 267 267 265 264 265
268 268 269 269 269 270 270 271 271 270 271 271 270 270 269 270 270 270 271 270 269 269 270 270 269 264 262 263 260 261 264 265 270 274 274 273 266 262
266 266 266 267 268 267 268 268 268 268 267 268 267 267 267 266 266 268 267 267 265 263 262 262 263 265 263 262 261 260 259 259 262 262 264 272 274 275

GFSNE_sfc_thetae_135.txt.gz
Theta_e
321 320 319 320 320 319 317 315 312 307 309 310 309 307 303 300 299 299 299 297 302 304 305 306 306 307 308 311 309 308 307 307 305 303 301 301 300 299
322 321 320 320 320 319 318 318 317 314 310 311 309 306 298 296 295 296 296 295 299 302 303 303 304 305 307 308 307 306 306 306 304 303 302 301 300 300
322 321 320 321 319 319 319 318 316 316 312 314 307 298 295 294 293 293 293 293 294 296 298 300 301 304 305 304 305 304 304 304 303 302 301 300 300 299
320 320 319 319 318 319 318 316 316 316 313 311 299 292 293 291 291 290 291 292 292 294 296 297 299 302 303 304 303 302 302 302 301 300 299 299 299 299
320 318 318 317 316 317 316 315 315 314 314 311 303 289 288 288 287 287 288 288 290 292 295 296 298 300 301 302 301 301 299 299 299 298 297 296 296 296
319 318 317 316 316 315 314 313 313 311 310 305 289 287 287 286 286 285 285 285 285 289 292 292 294 296 298 301 300 298 298 298 298 297 296 295 295 295
314 315 315 310 302 309 313 312 310 306 291 290 287 286 285 284 285 285 285 284 285 285 286 286 286 288 293 297 293 295 297 297 297 296 295 295 294 294
311 309 298 291 296 297 299 301 304 302 292 290 288 287 286 286 285 285 284 283 283 285 285 284 286 286 286 288 293 294 295 295 295 294 294 294 294 293
302 297 292 292 292 293 294 294 292 296 296 293 288 288 286 286 286 285 284 284 284 284 284 283 285 285 286 287 293 294 294 294 294 294 293 293 292 292
294 292 291 290 291 291 289 288 287 287 288 288 288 287 287 287 287 286 286 284 284 284 284 282 284 284 285 286 291 293 293 293 293 292 292 292 292 291
288 289 290 289 291 292 287 286 285 285 290 292 291 292 291 290 288 286 284 284 282 282 284 283 282 283 280 279 281 291 291 291 291 292 291 291 290 290
285 286 287 289 291 292 287 286 285 285 286 286 286 288 288 289 289 286 286 285 283 281 281 279 277 278 277 277 280 281 282 288 289 289 289 289 289 283
285 285 286 291 291 291 290 287 286 286 287 285 285 285 285 284 284 285 285 285 283 282 283 280 276 276 273 275 278 279 280 281 281 282 285 286 286 285
285 285 286 290 291 291 288 290 289 286 285 285 284 283 283 283 283 283 284 284 283 281 283 281 277 277 273 273 275 278 278 278 280 280 280 283 284 284
286 287 290 290 290 290 290 289 285 285 285 283 282 281 281 282 282 282 282 283 283 283 283 282 281 281 280 279 274 275 278 278 277 277 277 278 278 278
288 287 287 286 287 286 285 285 284 284 284 282 281 280 281 281 281 281 280 280 279 280 282 283 282 281 279 278 278 275 275 275 275 275 276 275 277 278
285 285 283 282 282 282 282 282 282 282 281 281 280 280 280 280 279 280 280 279 277 278 279 280 282 282 281 279 273 274 274 273 274 275 272 273 273 275
283 282 280 280 280 280 279 279 280 280 280 281 280 280 279 278 278 279 278 277 277 277 277 278 278 277 277 274 280 272 270 271 272 273 272 272 268 272
280 279 278 278 277 277 277 277 276 277 277 278 278 278 278 278 277 277 277 276 275 276 277 278 278 275 270 268 270 280 276 274 269 267 268 267 267 270
275 275 276 276 276 276 276 276 276 276 277 277 277 276 276 277 276 276 277 276 276 276 275 273 271 269 268 267 265 270 277 268 266 264 265 266 269 275
270 270 270 270 271 271 271 272 273 273 273 273 273 274 275 275 274 274 274 274 271 268 267 269 271 272 270 268 266 264 267 276 272 266 265 262 262 264
266 267 267 268 268 268 269 269 270 270 270 269 269 270 270 270 269 268 268 268 267 267 267 269 269 268 267 267 264 262 264 265 269 273 274 272 264 260
264 265 265 265 266 266 266 266 266 267 268 268 268 268 268 268 268 269 268 266 266 265 265 265 267 268 267 266 264 261 259 259 261 262 263 272 273 274

GFSNE_sfc_thetae_138.txt.gz
Theta_e
321 320 320 320 320 318 317 315 311 307 309 310 309 309 309 308 303 302 302 300 302 305 306 307 308 308 308 309 309 310 314 311 309 308 307 305 303 302
321 320 320 320 319 320 318 317 315 312 309 312 310 309 305 299 297 298 297 295 299 302 303 304 305 306 306 308 309 313 312 310 309 307 306 305 304 302
321 320 320 320 319 319 319 318 316 315 311 314 314 306 299 297 294 295 294 295 296 298 301 302 303 303 304 306 308 309 308 308 308 307 305 305 303 302
321 320 320 320 319 320 319 317 317 317 314 312 312 296 297 294 294 292 292 293 293 295 297 298 299 300 302 304 306 306 305 305 305 305 304 303 302 301
321 320 320 319 318 319 318 317 317 316 316 313 312 290 289 289 288 288 288 289 291 293 296 297 298 299 301 303 303 303 301 302 302 302 302 301 300 299
321 320 320 319 317 317 316 316 316 314 313 311 300 292 288 286 286 286 285 285 286 289 292 292 294 297 300 301 302 299 299 300 300 299 299 298 297 296
317 317 318 312 303 310 315 315 313 311 306 296 292 288 286 285 286 286 286 285 285 285 286 286 287 288 293 298 297 296 298 299 299 298 297 297 296 295
312 311 310 296 299 297 299 300 307 310 297 296 291 290 288 287 286 286 284 284 285 285 285 285 286 286 286 289 295 297 298 298 298 298 296 296 295 294
303 301 296 293 292 295 294 294 293 296 299 298 290 290 287 288 286 285 285 285 286 284 285 283 285 285 286 288 295 296 296 297 296 296 295 294 294 294
296 296 294 292 291 291 291 289 288 288 290 290 290 289 288 288 289 287 286 284 284 284 284 284 284 284 285 285 292 295 295 295 295 295 294 294 292 292
289 290 292 290 291 292 288 286 286 285 290 292 292 292 292 291 289 287 285 285 281 282 284 284 283 283 283 283 285 292 293 294 294 293 292 292 291 291
286 287 286 289 291 292 288 287 286 285 286 286 286 289 289 289 289 286 287 286 282 281 283 282 281 281 278 277 279 281 286 291 292 292 291 290 290 282
286 286 286 291 292 292 290 287 287 286 287 285 285 285 285 285 285 285 285 286 283 282 281 280 276 276 273 275 278 278 280 282 281 284 288 288 287 284
286 286 286 291 291 292 289 290 290 286 285 285 284 283 283 283 283 284 284 283 284 283 285 281 276 276 273 272 275 277 277 277 279 279 280 284 285 284
285 287 289 291 291 290 290 290 285 285 285 284 283 282 282 282 282 282 282 283 283 282 282 281 279 279 275 273 274 274 277 277 277 277 277 278 278 278
287 287 287 287 287 287 286 285 285 285 284 283 281 281 281 281 281 281 280 280 280 280 282 283 282 282 276 279 276 272 274 274 274 275 275 274 277 277
285 285 283 283 282 282 282 282 282 283 281 281 280 279 280 280 279 280 280 279 278 278 279 281 282 282 280 277 275 274 274 273 274 276 274 272 273 274
283 281 280 280 280 279 279 279 280 280 280 280 280 279 279 278 278 278 278 278 277 277 278 279 279 278 276 275 279 273 272 272 272 274 275 273 270 271
278 277 277 277 277 277 277 277 276 277 279 279 279 279 279 278 278 277 277 277 276 276 277 277 276 272 268 268 272 279 277 272 271 268 268 267 267 270
271 270 270 271 271 272 274 275 276 276 277 277 277 277 277 277 276 276 276 275 274 274 275 275 275 273 272 271 269 272 277 273 268 265 266 266 269 274
266 267 267 268 268 269 270 271 271 272 272 272 273 273 273 274 274 274 274 275 273 272 271 272 274 274 271 270 269 267 268 276 271 265 264 262 263 264
264 264 264 265 265 265 266 267 268 268 268 268 268 269 269 270 270 270 271 271 271 271 271 271 270 269 269 269 266 263 265 266 269 273 274 271 263 260
262 262 262 263 263 263 263 264 264 265 265 265 266 266 267 266 267 268 268 269 268 268 269 269 269 269 268 268 266 265 262 262 263 264 264 273 274 275

GFSNE_sfc_thetae_141.txt.gz
Theta_e
321 321 320 320 320 319 318 316 312 308 310 312 307 308 309 309 308 307 303 301 305 307 308 309 310 311 311 311 312 313 313 315 317 316 314 312 310 308
321 320 320 320 320 320 319 317 316 312 309 315 314 309 308 304 301 301 301 297 300 303 305 306 308 309 309 309 310 310 311 312 316 315 313 311 309 307
322 321 320 321 320 320 319 318 316 315 311 314 316 313 305 304 296 297 296 297 297 299 302 304 305 305 306 307 307 308 309 311 312 311 310 309 308 307
321 320 320 320 319 320 319 317 317 317 314 312 314 304 304 297 296 294 293 294 295 296 299 301 303 303 303 304 305 306 307 309 309 309 308 308 307 306
321 320 320 320 318 319 319 318 317 317 317 314 313 293 290 291 290 289 289 289 291 294 297 298 299 300 300 301 302 303 303 304 305 305 306 306 305 304
321 320 320 320 319 318 318 317 317 315 314 313 311 293 290 286 287 287 286 286 286 290 292 293 295 297 299 301 302 300 300 302 303 302 302 302 302 301
316 318 319 313 303 311 316 316 315 313 311 306 291 289 288 286 288 287 287 285 285 286 286 286 287 288 293 299 297 297 300 301 301 300 299 299 298 298
304 307 308 298 300 298 298 298 304 311 307 300 295 291 290 291 287 287 285 285 286 286 286 285 286 286 287 289 296 299 300 300 299 298 298 297 297 296
298 300 299 297 293 298 296 296 296 298 302 302 294 294 290 291 288 286 286 286 287 284 285 284 285 285 286 288 296 298 299 298 298 298 297 297 296 295
295 295 295 295 294 293 293 291 290 290 292 293 293 292 291 291 291 289 288 285 284 284 285 284 283 284 285 286 293 297 297 298 298 297 296 295 295 294
290 291 292 291 292 293 290 288 286 286 290 292 293 294 293 293 290 288 286 286 282 282 284 284 283 283 283 283 285 293 296 296 296 296 295 295 294 293
289 288 287 289 291 292 289 288 287 286 286 286 286 289 289 289 290 287 288 287 283 281 284 283 282 282 280 280 282 284 288 293 294 294 294 293 292 284
287 288 288 289 291 292 292 287 288 286 288 286 285 285 285 285 285 285 286 287 284 283 284 283 281 280 279 277 280 280 282 285 286 290 293 291 291 284
287 288 287 289 291 292 291 290 291 287 285 285 284 284 283 283 283 284 284 284 284 284 285 283 280 280 277 275 274 278 277 278 280 279 280 287 288 287
287 287 289 289 291 291 291 290 287 285 285 284 283 282 282 282 282 282 283 283 283 283 283 282 281 279 274 272 275 273 276 276 276 277 277 278 278 278
286 286 288 287 287 286 285 286 284 285 285 284 281 281 282 281 281 281 281 281 280 280 282 283 282 281 276 275 273 275 273 274 274 274 276 275 277 277
285 284 283 282 281 281 281 282 282 283 282 281 281 280 280 280 280 281 280 279 278 278 279 280 282 281 281 279 275 272 272 273 274 275 274 274 274 274
280 278 277 278 277 278 278 278 278 279 280 280 280 280 279 279 278 279 279 278 277 278 278 278 279 278 277 277 279 272 272 273 274 275 275 274 272 270
270 271 271 271 272 274 275 275 275 277 279 279 279 279 278 278 278 277 277 277 276 277 277 277 277 274 271 268 272 280 274 271 272 272 271 269 269 269
265 265 265 266 267 268 269 270 272 273 274 274 275 276 277 277 276 276 276 275 275 275 275 276 276 274 273 272 271 273 278 273 271 269 268 268 270 274
263 263 263 263 264 265 266 267 267 268 268 269 269 270 271 273 272 273 274 274 273 273 272 273 273 274 272 273 271 270 271 276 273 270 268 266 266 265
261 261 261 261 262 262 263 264 264 264 265 265 266 266 267 268 268 269 269 270 270 271 271 272 271 271 270 271 270 269 268 269 271 274 274 272 265 262
259 260 260 260 260 260 260 260 261 261 262 262 263 263 264 264 265 266 267 267 267 268 269 269 270 270 270 270 269 268 266 266 266 266 267 273 274 275

GFSNE_sfc_thetae_144.txt.gz
Theta_e
321 321 320 320 320 319 318 317 314 309 311 313 309 310 311 311 309 309 307 305 306 308 310 311 312 313 313 314 315 316 316 316 316 315 316 319 316 314
322 321 321 321 321 321 319 318 317 314 310 315 314 309 310 308 307 307 308 299 301 305 306 308 309 310 311 312 313 313 313 314 314 315 316 318 316 314
321 321 320 321 320 320 320 319 317 316 312 315 316 315 307 308 302 300 300 300 299 300 303 305 306 307 308 309 310 310 311 311 313 313 317 317 315 313
320 320 319 320 319 320 319 318 318 318 315 312 315 312 309 307 304 299 295 296 298 298 301 303 304 305 305 306 306 307 307 308 309 311 315 315 313 311
315 318 319 319 318 319 319 318 318 317 317 314 313 306 297 293 292 289 291 291 292 295 300 300 301 303 303 304 304 303 302 304 306 307 308 309 309 308
304 307 311 317 318 318 318 317 317 316 315 314 312 309 293 288 289 289 288 286 287 290 294 295 297 298 300 301 301 299 300 303 304 305 304 305 306 306
297 300 303 302 296 300 311 317 316 314 312 306 300 289 288 286 288 289 292 287 285 286 286 287 288 290 294 298 297 297 300 302 302 302 301 302 302 302
294 296 298 295 299 297 298 298 300 307 305 296 293 292 293 290 290 289 288 286 288 287 286 286 287 287 288 289 297 299 300 301 301 300 300 300 299 298
294 294 295 296 293 297 297 296 296 296 299 305 297 295 290 294 290 287 287 288 288 285 286 285 286 286 286 289 296 298 299 300 299 299 299 298 297 296
293 293 293 293 294 293 295 294 293 292 292 293 295 295 297 294 294 290 290 286 284 285 285 285 284 284 285 286 294 297 299 299 299 298 298 298 296 295
290 291 291 291 292 293 290 289 290 289 289 292 293 294 295 295 292 288 286 287 283 283 284 284 283 282 283 284 285 293 298 299 298 298 297 297 295 294
289 288 287 289 291 292 289 288 288 289 286 286 286 289 290 291 291 289 289 288 283 281 284 283 282 283 281 281 282 285 288 296 297 297 297 296 295 288
287 288 288 290 291 291 292 287 288 287 288 286 285 285 285 285 285 286 287 289 286 285 285 284 282 280 280 279 280 281 284 287 288 293 295 295 293 288
287 288 288 290 290 291 291 292 291 288 286 285 285 284 284 283 284 284 285 284 285 285 286 284 282 281 279 278 278 279 279 281 284 283 286 292 291 289
286 287 289 289 290 290 291 291 287 285 285 285 285 283 283 283 283 282 283 283 283 283 283 282 282 281 281 279 276 277 278 278 279 280 280 280 279 279
286 285 286 286 286 284 283 284 284 284 284 285 283 281 282 282 281 282 281 282 281 280 282 283 282 282 278 279 278 278 277 277 277 278 277 275 277 277
278 276 276 277 278 278 279 279 280 281 281 281 281 280 280 280 280 281 281 280 279 278 278 280 281 281 281 279 276 276 275 274 276 276 275 274 275 275
268 267 267 268 269 270 272 274 275 277 279 280 279 279 278 278 278 279 279 279 278 278 278 279 279 279 278 278 281 275 274 274 275 276 275 275 274 273
263 263 263 264 265 266 267 268 268 270 273 275 277 278 278 278 277 277 277 277 277 277 277 278 277 277 274 272 273 280 275 274 273 273 273 273 272 271
261 261 261 261 262 263 264 265 266 266 267 268 269 270 272 276 276 276 276 276 276 276 275 276 276 275 274 273 270 273 279 273 272 272 271 270 271 274
259 259 260 260 260 260 261 262 263 263 264 264 265 266 267 269 269 270 272 273 274 274 273 272 272 274 273 274 271 270 271 277 274 272 270 270 269 268
258 258 258 258 258 259 259 260 260 260 260 261 262 263 264 265 265 266 267 268 269 270 271 271 272 272 272 272 271 270 269 270 273 276 275 274 268 267
257 257 257 257 257 257 257 258 258 258 259 259 260 261 262 262 263 264 265 266 266 267 268 269 270 270 270 270 270 268 267 267 268 269 269 275 276 275

GFSNE_sfc_thetae_147.txt.gz
Theta_e
321 321 320 321 321 320 319 317 313 309 311 316 314 313 315 315 313 313 312 307 307 309 311 312 313 314 315 316 317 319 319 320 319 319 319 319 321 320
321 321 320 321 321 321 320 319 317 314 310 317 317 314 313 312 312 312 314 303 303 306 308 309 310 311 312 313 315 315 316 318 318 318 318 318 318 320
313 316 318 320 320 320 320 320 318 317 313 316 318 318 312 311 309 309 310 309 308 301 305 307 307 308 309 310 312 313 314 315 315 315 316 317 318 319
301 304 307 311 314 320 319 318 318 318 316 313 316 314 312 313 313 308 304 302 303 300 303 304 306 306 306 308 308 309 309 310 311 312 312 314 316 319
296 298 299 304 305 309 313 318 318 318 317 315 314 316 315 299 298 294 296 294 296 298 302 302 303 304 305 305 306 305 304 305 306 306 307 308 311 315
294 295 296 297 298 302 301 304 308 313 315 314 313 312 299 290 290 292 293 289 291 292 295 297 299 300 303 304 303 301 301 302 303 304 305 307 309 310
293 293 295 294 291 294 296 299 300 302 304 307 307 294 291 290 290 292 295 292 287 288 289 290 290 293 297 300 297 297 300 301 302 303 303 304 304 305
291 292 293 292 293 293 294 295 296 296 297 299 301 296 294 293 291 291 290 289 290 289 288 289 289 289 289 294 298 299 299 300 301 302 302 302 302 302
289 291 292 293 292 294 295 294 294 294 297 298 297 299 292 295 290 288 288 289 291 288 290 287 287 288 288 291 297 298 299 300 300 300 301 301 300 299
288 289 290 291 292 291 292 292 292 293 293 295 296 297 298 299 297 292 291 289 285 285 287 287 285 286 286 288 296 298 299 300 300 300 300 299 298 297
287 288 290 289 290 291 290 288 288 289 292 293 294 294 295 296 295 289 287 287 285 285 286 285 284 283 284 285 287 295 298 299 299 299 299 298 297 295
286 287 288 289 290 291 289 288 286 288 289 289 287 290 292 292 293 294 291 289 286 284 286 286 282 283 282 282 283 285 292 297 298 298 298 297 296 292
284 285 286 289 290 291 291 288 288 289 289 288 288 287 286 286 287 287 289 293 287 287 286 287 283 282 283 280 281 282 285 291 295 296 298 296 294 291
280 284 285 288 289 289 289 290 291 291 288 287 286 286 285 285 285 285 285 285 286 287 287 286 283 283 281 279 279 279 281 283 289 289 292 295 293 292
276 278 278 280 281 283 284 285 284 286 285 285 285 285 284 284 283 283 283 284 283 285 287 284 284 283 283 281 278 278 280 280 284 286 288 288 286 286
272 271 273 273 274 274 274 277 278 281 282 282 283 282 282 282 282 282 282 282 281 280 282 283 284 284 280 281 281 280 279 279 281 284 282 281 281 283
267 267 266 266 266 267 269 270 271 272 274 279 281 281 281 281 280 281 281 280 279 279 279 280 281 282 281 280 280 280 277 278 280 280 281 278 279 279
263 262 262 262 262 263 264 265 267 267 269 271 273 277 279 279 279 280 281 280 279 279 279 280 280 280 280 280 282 277 278 278 278 280 280 278 276 277
260 260 259 260 260 261 262 263 263 265 267 267 268 269 271 275 278 278 278 279 278 278 279 279 280 280 277 273 276 281 277 277 277 278 279 278 277 276
259 258 258 258 258 259 259 260 261 262 263 264 265 266 267 269 269 270 272 275 277 277 277 278 277 278 276 275 274 274 280 277 278 275 274 273 275 278
257 257 257 257 257 258 258 259 260 260 260 261 262 263 264 265 266 267 268 269 271 273 272 271 272 275 276 277 273 272 273 279 277 276 274 273 272 271
256 256 257 257 256 256 257 257 258 258 259 259 260 261 262 263 263 264 265 266 267 268 270 272 273 274 274 275 272 271 271 272 276 277 277 276 273 270
255 255 255 255 255 255 256 256 256 257 257 258 259 260 260 260 262 262 263 264 264 265 266 267 270 271 270 271 271 270 269 270 271 272 272 276 275 276